QPF
0.00 0.00 0.00 0.00 0.00 0.00 0.00 0.01 0.01 0.01 0.01 0.01 0.00 0.00 0.00 0.00 0.00 0.00 0.00 0.01 0.01 0.01 0.03 0.03 0.03 0.02 0.03 0.02 0.02 0.03 0.03 0.05 0.06 0.07 0.06 0.05 0.05 0.05 0.05 0.04 0.03 0.03 0.04 0.04
0.00 0.00 0.00 0.00 0.00 0.00 0.00 0.00 0.01 0.01 0.01 0.01 0.01 0.00 0.00 0.00 0.00 0.00 0.00 0.01 0.01 0.01 0.02 0.03 0.04 0.03 0.02 0.02 0.03 0.04 0.05 0.05 0.06 0.06 0.06 0.05 0.04 0.04 0.05 0.05 0.04 0.05 0.06 0.06
0.00 0.00 0.00 0.00 0.00 0.00 0.00 0.01 0.01 0.01 0.01 0.01 0.01 0.01 0.01 0.01 0.00 0.00 0.00 0.00 0.00 0.01 0.01 0.02 0.02 0.02 0.01 0.02 0.03 0.04 0.04 0.04 0.04 0.04 0.05 0.05 0.05 0.04 0.04 0.05 0.06 0.07 0.05 0.06
0.00 0.00 0.00 0.01 0.00 0.00 0.00 0.01 0.00 0.01 0.01 0.01 0.02 0.01 0.01 0.01 0.00 0.00 0.00 0.00 0.00 0.00 0.00 0.01 0.02 0.02 0.01 0.02 0.02 0.02 0.02 0.03 0.04 0.06 0.07 0.10 0.08 0.05 0.04 0.03 0.04 0.06 0.07 0.07
0.00 0.00 0.00 0.00 0.00 0.00 0.01 0.01 0.00 0.01 0.01 0.02 0.02 0.02 0.01 0.01 0.01 0.01 0.00 0.00 0.00 0.01 0.01 0.01 0.01 0.02 0.02 0.02 0.02 0.02 0.02 0.02 0.03 0.05 0.06 0.11 0.16 0.12 0.08 0.05 0.04 0.05 0.09 0.09
0.00 0.00 0.00 0.00 0.00 0.00 0.01 0.01 0.01 0.01 0.01 0.01 0.02 0.03 0.03 0.02 0.02 0.02 0.02 0.02 0.01 0.02 0.02 0.02 0.03 0.04 0.03 0.03 0.03 0.03 0.03 0.03 0.03 0.03 0.04 0.06 0.10 0.15 0.11 0.06 0.05 0.06 0.07 0.05
0.00 0.00 0.00 0.00 0.01 0.01 0.01 0.01 0.02 0.02 0.01 0.01 0.01 0.01 0.01 0.01 0.01 0.01 0.01 0.01 0.01 0.02 0.03 0.04 0.05 0.05 0.04 0.04 0.03 0.02 0.02 0.03 0.03 0.04 0.06 0.07 0.07 0.09 0.10 0.06 0.05 0.04 0.04 0.04
0.00 0.00 0.00 0.00 0.00 0.01 0.01 0.01 0.01 0.01 0.01 0.01 0.01 0.01 0.01 0.00 0.01 0.01 0.01 0.01 0.02 0.02 0.04 0.04 0.04 0.05 0.07 0.07 0.06 0.03 0.04 0.04 0.03 0.04 0.05 0.07 0.08 0.08 0.07 0.06 0.04 0.04 0.04 0.03
0.01 0.01 0.00 0.00 0.00 0.00 0.01 0.01 0.01 0.01 0.01 0.01 0.01 0.01 0.01 0.00 0.00 0.01 0.01 0.02 0.04 0.07 0.07 0.07 0.05 0.06 0.07 0.07 0.06 0.04 0.04 0.05 0.04 0.03 0.05 0.06 0.07 0.06 0.06 0.07 0.06 0.06 0.05 0.06
0.01 0.01 0.01 0.01 0.00 0.00 0.00 0.01 0.02 0.02 0.02 0.01 0.01 0.01 0.01 0.01 0.01 0.01 0.02 0.03 0.04 0.07 0.07 0.07 0.06 0.06 0.06 0.06 0.04 0.04 0.04 0.05 0.07 0.05 0.06 0.06 0.06 0.05 0.04 0.04 0.03 0.03 0.03 0.04
0.01 0.01 0.01 0.02 0.01 0.00 0.00 0.01 0.02 0.02 0.02 0.01 0.01 0.01 0.01 0.01 0.01 0.02 0.02 0.02 0.04 0.05 0.07 0.08 0.09 0.08 0.07 0.05 0.05 0.05 0.04 0.04 0.04 0.05 0.05 0.06 0.06 0.06 0.06 0.04 0.03 0.03 0.03 0.04
0.01 0.02 0.02 0.02 0.03 0.02 0.01 0.02 0.02 0.01 0.01 0.01 0.01 0.01 0.01 0.01 0.01 0.02 0.03 0.04 0.05 0.06 0.08 0.11 0.10 0.08 0.07 0.07 0.06 0.07 0.05 0.05 0.04 0.04 0.03 0.04 0.06 0.07 0.07 0.07 0.04 0.03 0.03 0.04
0.02 0.02 0.02 0.02 0.02 0.02 0.02 0.02 0.01 0.01 0.01 0.01 0.01 0.02 0.01 0.01 0.01 0.02 0.03 0.04 0.06 0.05 0.08 0.12 0.12 0.11 0.10 0.08 0.06 0.06 0.05 0.05 0.04 0.04 0.03 0.03 0.06 0.10 0.10 0.09 0.08 0.06 0.04 0.04
0.02 0.02 0.01 0.01 0.02 0.02 0.02 0.02 0.02 0.01 0.01 0.01 0.02 0.02 0.02 0.02 0.03 0.04 0.05 0.05 0.05 0.06 0.09 0.13 0.14 0.13 0.11 0.08 0.06 0.06 0.05 0.05 0.05 0.06 0.05 0.05 0.06 0.08 0.12 0.11 0.08 0.09 0.06 0.05
0.02 0.02 0.01 0.01 0.02 0.01 0.02 0.02 0.03 0.02 0.02 0.02 0.01 0.01 0.02 0.02 0.02 0.03 0.05 0.07 0.06 0.06 0.08 0.08 0.07 0.08 0.09 0.07 0.06 0.05 0.04 0.05 0.06 0.06 0.06 0.06 0.07 0.07 0.07 0.06 0.06 0.07 0.07 0.05
0.01 0.02 0.02 0.02 0.02 0.02 0.02 0.04 0.05 0.04 0.03 0.02 0.01 0.01 0.01 0.02 0.02 0.03 0.04 0.05 0.06 0.06 0.06 0.07 0.06 0.07 0.06 0.05 0.07 0.08 0.08 0.06 0.06 0.06 0.05 0.05 0.07 0.08 0.06 0.04 0.04 0.05 0.06 0.06
0.00 0.01 0.02 0.02 0.02 0.02 0.03 0.03 0.03 0.04 0.03 0.03 0.02 0.01 0.01 0.01 0.02 0.02 0.03 0.04 0.05 0.06 0.06 0.06 0.07 0.07 0.06 0.06 0.07 0.10 0.08 0.05 0.05 0.06 0.06 0.05 0.05 0.05 0.05 0.04 0.03 0.03 0.03 0.04
0.01 0.01 0.02 0.02 0.02 0.03 0.03 0.03 0.02 0.02 0.03 0.04 0.04 0.03 0.02 0.01 0.01 0.02 0.03 0.04 0.04 0.05 0.05 0.06 0.07 0.07 0.05 0.06 0.08 0.09 0.07 0.05 0.04 0.04 0.04 0.04 0.03 0.03 0.03 0.03 0.02 0.01 0.02 0.03
0.02 0.02 0.03 0.03 0.02 0.02 0.02 0.02 0.01 0.02 0.04 0.05 0.06 0.04 0.02 0.01 0.02 0.03 0.04 0.05 0.05 0.05 0.05 0.05 0.05 0.05 0.05 0.06 0.07 0.05 0.04 0.03 0.02 0.02 0.02 0.02 0.02 0.02 0.02 0.03 0.02 0.01 0.02 0.02
0.02 0.02 0.02 0.03 0.02 0.02 0.02 0.02 0.02 0.02 0.03 0.03 0.03 0.04 0.02 0.02 0.04 0.07 0.06 0.06 0.05 0.06 0.06 0.05 0.04 0.03 0.04 0.06 0.06 0.03 0.02 0.02 0.02 0.02 0.01 0.01 0.02 0.03 0.03 0.03 0.02 0.01 0.02 0.03
0.03 0.02 0.02 0.02 0.02 0.02 0.02 0.02 0.02 0.02 0.02 0.02 0.02 0.02 0.02 0.03 0.05 0.06 0.04 0.04 0.04 0.04 0.04 0.03 0.03 0.03 0.03 0.05 0.05 0.03 0.03 0.02 0.02 0.02 0.01 0.01 0.02 0.02 0.01 0.02 0.03 0.03 0.03 0.04
0.04 0.04 0.03 0.02 0.02 0.02 0.02 0.02 0.02 0.02 0.02 0.02 0.02 0.03 0.03 0.03 0.03 0.03 0.03 0.03 0.03 0.03 0.03 0.03 0.04 0.05 0.05 0.06 0.05 0.04 0.03 0.03 0.03 0.02 0.01 0.01 0.01 0.01 0.02 0.03 0.04 0.05 0.04 0.03
0.06 0.05 0.03 0.02 0.02 0.03 0.03 0.03 0.02 0.02 0.02 0.02 0.03 0.03 0.03 0.03 0.03 0.03 0.02 0.02 0.03 0.03 0.02 0.03 0.03 0.05 0.06 0.06 0.07 0.06 0.05 0.04 0.03 0.03 0.03 0.02 0.01 0.01 0.02 0.03 0.04 0.03 0.03 0.02
0.05 0.04 0.05 0.05 0.04 0.04 0.03 0.03 0.03 0.02 0.02 0.02 0.03 0.04 0.03 0.03 0.04 0.04 0.03 0.02 0.02 0.02 0.02 0.03 0.03 0.04 0.05 0.05 0.08 0.08 0.07 0.07 0.05 0.04 0.03 0.03 0.02 0.01 0.00 0.02 0.06 0.06 0.02 0.02
0.03 0.02 0.03 0.04 0.04 0.04 0.04 0.04 0.03 0.02 0.02 0.02 0.02 0.04 0.04 0.04 0.04 0.05 0.04 0.03 0.03 0.04 0.03 0.03 0.02 0.02 0.03 0.04 0.06 0.07 0.08 0.07 0.06 0.04 0.03 0.02 0.02 0.02 0.01 0.01 0.04 0.07 0.05 0.03
0.03 0.03 0.03 0.03 0.03 0.05 0.05 0.05 0.03 0.02 0.02 0.02 0.03 0.06 0.08 0.06 0.05 0.04 0.05 0.05 0.05 0.05 0.04 0.03 0.02 0.02 0.02 0.03 0.04 0.05 0.05 0.05 0.05 0.05 0.04 0.03 0.02 0.02 0.01 0.01 0.02 0.04 0.05 0.05
MSLP
1008.34 1009.35 1010.24 1010.92 1011.34 1011.50 1011.42 1011.14 1010.73 1010.24 1009.74 1009.27 1008.89 1008.60 1008.44 1008.40 1008.49 1008.68 1008.96 1009.31 1009.69 1010.07 1010.44 1010.76 1011.04 1011.27 1011.47 1011.67 1011.88 1012.13 1012.43 1012.79 1013.18 1013.59 1014.00 1014.38 1014.71 1014.99 1015.21 1015.39 1015.54 1015.70 1015.87 1016.07
1008.55 1009.41 1010.15 1010.71 1011.08 1011.26 1011.27 1011.14 1010.90 1010.59 1010.23 1009.85 1009.47 1009.12 1008.83 1008.62 1008.52 1008.54 1008.68 1008.94 1009.27 1009.66 1010.05 1010.42 1010.74 1011.00 1011.23 1011.44 1011.66 1011.92 1012.24 1012.63 1013.07 1013.54 1013.99 1014.41 1014.77 1015.06 1015.27 1015.44 1015.58 1015.73 1015.91 1016.12
1008.53 1009.19 1009.75 1010.19 1010.52 1010.75 1010.90 1010.97 1010.96 1010.86 1010.68 1010.39 1010.02 1009.60 1009.15 1008.74 1008.41 1008.22 1008.19 1008.32 1008.59 1008.95 1009.37 1009.79 1010.17 1010.50 1010.78 1011.03 1011.29 1011.59 1011.96 1012.39 1012.88 1013.39 1013.89 1014.34 1014.73 1015.02 1015.24 1015.40 1015.54 1015.69 1015.88 1016.11
1008.31 1008.75 1009.12 1009.46 1009.77 1010.08 1010.40 1010.71 1010.96 1011.12 1011.12 1010.94 1010.59 1010.07 1009.45 1008.81 1008.23 1007.79 1007.55 1007.52 1007.69 1008.03 1008.46 1008.93 1009.39 1009.79 1010.15 1010.48 1010.80 1011.16 1011.57 1012.05 1012.57 1013.12 1013.66 1014.13 1014.53 1014.83 1015.05 1015.22 1015.37 1015.53 1015.73 1015.99
1007.96 1008.18 1008.39 1008.63 1008.96 1009.39 1009.91 1010.47 1011.00 1011.40 1011.60 1011.53 1011.17 1010.56 1009.76 1008.87 1008.03 1007.33 1006.86 1006.66 1006.72 1007.00 1007.44 1007.96 1008.49 1008.98 1009.43 1009.84 1010.23 1010.65 1011.10 1011.61 1012.17 1012.73 1013.28 1013.76 1014.16 1014.46 1014.68 1014.85 1015.01 1015.19 1015.42 1015.70
1007.57 1007.59 1007.66 1007.85 1008.21 1008.77 1009.49 1010.31 1011.09 1011.73 1012.10 1012.11 1011.75 1011.04 1010.07 1008.96 1007.86 1006.92 1006.23 1005.85 1005.80 1006.02 1006.46 1007.01 1007.61 1008.18 1008.71 1009.19 1009.65 1010.10 1010.59 1011.11 1011.66 1012.22 1012.75 1013.21 1013.60 1013.89 1014.11 1014.28 1014.45 1014.66 1014.91 1015.22
1007.18 1007.06 1007.03 1007.20 1007.61 1008.30 1009.20 1010.23 1011.23 1012.06 1012.55 1012.63 1012.26 1011.46 1010.34 1009.04 1007.74 1006.59 1005.72 1005.20 1005.05 1005.22 1005.65 1006.23 1006.87 1007.50 1008.08 1008.61 1009.10 1009.58 1010.06 1010.57 1011.09 1011.61 1012.10 1012.52 1012.87 1013.14 1013.35 1013.52 1013.71 1013.93 1014.22 1014.56
1006.82 1006.61 1006.54 1006.71 1007.19 1007.98 1009.02 1010.20 1011.35 1012.29 1012.87 1012.97 1012.58 1011.72 1010.49 1009.07 1007.63 1006.36 1005.38 1004.77 1004.55 1004.69 1005.11 1005.69 1006.35 1007.01 1007.62 1008.16 1008.65 1009.11 1009.56 1010.02 1010.48 1010.94 1011.36 1011.73 1012.04 1012.27 1012.46 1012.63 1012.82 1013.07 1013.38 1013.76
1006.48 1006.24 1006.17 1006.36 1006.89 1007.75 1008.87 1010.13 1011.34 1012.32 1012.91 1013.02 1012.61 1011.71 1010.45 1008.99 1007.51 1006.21 1005.20 1004.58 1004.35 1004.48 1004.88 1005.46 1006.11 1006.76 1007.34 1007.85 1008.30 1008.71 1009.10 1009.49 1009.88 1010.26 1010.61 1010.91 1011.16 1011.35 1011.51 1011.67 1011.86 1012.11 1012.45 1012.85
1006.12 1005.91 1005.87 1006.10 1006.67 1007.55 1008.67 1009.91 1011.09 1012.04 1012.60 1012.68 1012.26 1011.38 1010.15 1008.75 1007.34 1006.11 1005.18 1004.61 1004.42 1004.57 1004.97 1005.53 1006.14 1006.73 1007.25 1007.69 1008.06 1008.39 1008.70 1009.01 1009.32 1009.62 1009.89 1010.13 1010.32 1010.46 1010.59 1010.72 1010.90 1011.15 1011.49 1011.91
1005.71 1005.57 1005.59 1005.86 1006.43 1007.28 1008.34 1009.49 1010.56 1011.40 1011.88 1011.92 1011.51 1010.69 1009.59 1008.33 1007.11 1006.05 1005.28 1004.85 1004.74 1004.93 1005.33 1005.85 1006.38 1006.88 1007.30 1007.65 1007.92 1008.15 1008.38 1008.60 1008.84 1009.07 1009.28 1009.46 1009.59 1009.69 1009.77 1009.86 1010.00 1010.22 1010.53 1010.94
1005.26 1005.20 1005.29 1005.59 1006.14 1006.91 1007.85 1008.84 1009.74 1010.44 1010.81 1010.81 1010.43 1009.73 1008.80 1007.78 1006.82 1006.02 1005.48 1005.23 1005.25 1005.49 1005.88 1006.33 1006.78 1007.16 1007.46 1007.68 1007.85 1007.99 1008.13 1008.30 1008.48 1008.66 1008.82 1008.95 1009.04 1009.08 1009.09 1009.12 1009.19 1009.35 1009.60 1009.96
1004.79 1004.84 1004.99 1005.30 1005.80 1006.46 1007.23 1008.02 1008.72 1009.24 1009.50 1009.46 1009.14 1008.59 1007.89 1007.17 1006.52 1006.03 1005.75 1005.71 1005.86 1006.16 1006.54 1006.92 1007.25 1007.50 1007.67 1007.77 1007.84 1007.90 1007.99 1008.11 1008.26 1008.41 1008.55 1008.64 1008.68 1008.65 1008.59 1008.52 1008.49 1008.54 1008.69 1008.96
1004.42 1004.54 1004.74 1005.04 1005.47 1005.99 1006.57 1007.14 1007.62 1007.96 1008.10 1008.04 1007.80 1007.42 1006.98 1006.57 1006.25 1006.08 1006.08 1006.24 1006.53 1006.88 1007.23 1007.53 1007.74 1007.87 1007.91 1007.90 1007.88 1007.89 1007.95 1008.06 1008.20 1008.35 1008.47 1008.54 1008.52 1008.42 1008.25 1008.06 1007.90 1007.80 1007.80 1007.92
1004.22 1004.40 1004.62 1004.89 1005.22 1005.59 1005.97 1006.32 1006.59 1006.76 1006.80 1006.73 1006.57 1006.36 1006.18 1006.06 1006.06 1006.19 1006.45 1006.80 1007.19 1007.57 1007.89 1008.11 1008.22 1008.23 1008.17 1008.08 1008.00 1007.98 1008.03 1008.15 1008.31 1008.47 1008.59 1008.62 1008.55 1008.36 1008.08 1007.74 1007.41 1007.12 1006.94 1006.89
1004.29 1004.50 1004.71 1004.93 1005.15 1005.36 1005.55 1005.69 1005.77 1005.78 1005.73 1005.65 1005.57 1005.53 1005.56 1005.71 1005.98 1006.36 1006.83 1007.32 1007.80 1008.20 1008.49 1008.63 1008.66 1008.58 1008.44 1008.30 1008.20 1008.18 1008.25 1008.40 1008.59 1008.76 1008.87 1008.88 1008.74 1008.46 1008.05 1007.56 1007.04 1006.56 1006.17 1005.92
1004.68 1004.88 1005.06 1005.20 1005.31 1005.37 1005.38 1005.34 1005.25 1005.12 1005.00 1004.91 1004.89 1004.97 1005.18 1005.53 1006.01 1006.58 1007.19 1007.79 1008.32 1008.72 1008.98 1009.08 1009.05 1008.91 1008.74 1008.59 1008.50 1008.50 1008.60 1008.78 1009.00 1009.19 1009.29 1009.26 1009.07 1008.69 1008.17 1007.53 1006.84 1006.17 1005.58 1005.13
1005.40 1005.56 1005.68 1005.75 1005.74 1005.67 1005.52 1005.32 1005.08 1004.85 1004.66 1004.55 1004.56 1004.72 1005.05 1005.53 1006.13 1006.82 1007.52 1008.18 1008.73 1009.14 1009.38 1009.46 1009.40 1009.26 1009.09 1008.95 1008.89 1008.93 1009.07 1009.28 1009.52 1009.71 1009.80 1009.74 1009.49 1009.04 1008.41 1007.66 1006.84 1006.02 1005.26 1004.64
1006.36 1006.48 1006.55 1006.53 1006.42 1006.22 1005.95 1005.62 1005.27 1004.95 1004.70 1004.56 1004.58 1004.77 1005.14 1005.68 1006.34 1007.07 1007.81 1008.48 1009.04 1009.45 1009.69 1009.78 1009.73 1009.62 1009.48 1009.39 1009.37 1009.45 1009.62 1009.85 1010.09 1010.27 1010.34 1010.25 1009.96 1009.46 1008.78 1007.96 1007.06 1006.15 1005.29 1004.54
1007.48 1007.56 1007.56 1007.47 1007.28 1006.99 1006.62 1006.20 1005.77 1005.37 1005.07 1004.89 1004.89 1005.07 1005.43 1005.97 1006.62 1007.34 1008.07 1008.73 1009.29 1009.70 1009.96 1010.07 1010.07 1010.01 1009.93 1009.89 1009.91 1010.02 1010.20 1010.43 1010.65 1010.81 1010.86 1010.74 1010.43 1009.92 1009.23 1008.40 1007.49 1006.56 1005.67 1004.87
1008.64 1008.70 1008.65 1008.51 1008.25 1007.90 1007.47 1006.99 1006.50 1006.06 1005.71 1005.50 1005.45 1005.58 1005.90 1006.38 1006.98 1007.65 1008.33 1008.97 1009.51 1009.93 1010.21 1010.37 1010.43 1010.43 1010.41 1010.42 1010.48 1010.60 1010.77 1010.97 1011.16 1011.28 1011.29 1011.15 1010.84 1010.35 1009.70 1008.92 1008.07 1007.19 1006.34 1005.56
1009.77 1009.81 1009.74 1009.56 1009.28 1008.89 1008.43 1007.93 1007.41 1006.95 1006.56 1006.30 1006.20 1006.27 1006.51 1006.90 1007.42 1008.01 1008.62 1009.21 1009.73 1010.16 1010.48 1010.69 1010.81 1010.87 1010.92 1010.96 1011.03 1011.14 1011.28 1011.43 1011.56 1011.62 1011.60 1011.44 1011.15 1010.70 1010.13 1009.44 1008.70 1007.92 1007.17 1006.46
1010.81 1010.85 1010.78 1010.59 1010.29 1009.90 1009.44 1008.94 1008.43 1007.95 1007.55 1007.26 1007.10 1007.09 1007.24 1007.53 1007.94 1008.43 1008.96 1009.49 1009.99 1010.41 1010.76 1011.01 1011.19 1011.31 1011.39 1011.46 1011.52 1011.60 1011.68 1011.76 1011.82 1011.82 1011.75 1011.58 1011.30 1010.92 1010.43 1009.87 1009.26 1008.62 1007.99 1007.39
1011.76 1011.80 1011.73 1011.55 1011.26 1010.89 1010.45 1009.97 1009.48 1009.02 1008.61 1008.29 1008.07 1007.99 1008.04 1008.22 1008.52 1008.90 1009.34 1009.81 1010.26 1010.68 1011.03 1011.32 1011.53 1011.69 1011.79 1011.85 1011.90 1011.93 1011.94 1011.94 1011.91 1011.85 1011.73 1011.55 1011.30 1010.97 1010.58 1010.13 1009.65 1009.15 1008.65 1008.16
1012.63 1012.68 1012.60 1012.43 1012.16 1011.81 1011.41 1010.97 1010.52 1010.08 1009.67 1009.33 1009.07 1008.91 1008.86 1008.94 1009.12 1009.39 1009.74 1010.12 1010.52 1010.91 1011.26 1011.55 1011.78 1011.95 1012.05 1012.10 1012.11 1012.08 1012.03 1011.95 1011.85 1011.73 1011.57 1011.37 1011.13 1010.85 1010.53 1010.18 1009.80 1009.41 1009.01 1008.61
1013.46 1013.49 1013.41 1013.23 1012.98 1012.66 1012.29 1011.89 1011.47 1011.06 1010.66 1010.30 1010.01 1009.78 1009.65 1009.62 1009.69 1009.85 1010.10 1010.39 1010.73 1011.06 1011.38 1011.66 1011.88 1012.04 1012.12 1012.15 1012.12 1012.05 1011.94 1011.80 1011.65 1011.48 1011.29 1011.08 1010.85 1010.60 1010.33 1010.03 1009.72 1009.39 1009.05 1008.70
Thickness
5724 5712 5707 5714 5719 5721 5721 5718 5717 5728 5743 5739 5737 5740 5750 5757 5756 5756 5757 5758 5759 5762 5765 5765 5765 5764 5762 5759 5756 5753 5750 5747 5745 5741 5738 5734 5733 5732 5732 5731 5730 5729 5727 5725
5708 5707 5721 5724 5722 5719 5717 5712 5715 5727 5739 5737 5732 5735 5745 5751 5752 5755 5755 5755 5756 5757 5758 5758 5759 5758 5757 5754 5752 5750 5748 5745 5743 5741 5738 5734 5732 5731 5730 5729 5727 5726 5725 5723
5706 5717 5727 5721 5717 5713 5712 5710 5713 5717 5727 5732 5727 5724 5734 5745 5750 5752 5753 5754 5754 5754 5753 5753 5753 5753 5752 5749 5747 5747 5745 5743 5741 5738 5735 5732 5728 5726 5725 5724 5724 5723 5722 5721
5707 5719 5721 5716 5714 5713 5705 5721 5720 5717 5708 5702 5715 5698 5720 5733 5737 5743 5746 5748 5749 5751 5751 5750 5750 5748 5747 5746 5746 5744 5742 5740 5738 5736 5733 5730 5726 5723 5723 5722 5721 5720 5719 5718
5706 5716 5714 5711 5717 5717 5714 5723 5718 5714 5705 5697 5704 5695 5706 5723 5725 5734 5742 5745 5746 5747 5748 5747 5747 5746 5745 5744 5742 5740 5738 5735 5734 5733 5730 5727 5724 5722 5721 5720 5718 5717 5716 5715
5711 5720 5720 5720 5726 5724 5721 5714 5707 5696 5688 5680 5696 5691 5696 5711 5723 5731 5738 5742 5743 5744 5744 5743 5743 5742 5741 5740 5738 5736 5733 5731 5730 5728 5725 5723 5721 5719 5717 5715 5714 5713 5712 5711
5699 5709 5718 5722 5714 5716 5710 5690 5672 5671 5665 5672 5694 5690 5694 5718 5728 5732 5735 5738 5740 5740 5739 5738 5736 5736 5735 5734 5734 5732 5728 5726 5725 5723 5720 5718 5717 5715 5713 5712 5711 5709 5708 5707
5678 5684 5707 5714 5711 5703 5699 5691 5669 5660 5661 5671 5687 5684 5701 5722 5729 5733 5734 5735 5735 5735 5735 5734 5733 5733 5731 5730 5729 5726 5723 5721 5720 5718 5715 5713 5712 5711 5710 5709 5708 5707 5705 5704
5674 5680 5707 5715 5716 5709 5693 5685 5691 5673 5669 5666 5673 5686 5703 5718 5721 5725 5727 5728 5727 5729 5729 5729 5729 5728 5726 5725 5723 5722 5719 5716 5715 5713 5710 5708 5707 5706 5706 5705 5704 5703 5702 5701
5684 5678 5695 5707 5710 5705 5701 5690 5673 5665 5656 5655 5669 5678 5686 5702 5708 5715 5718 5720 5722 5723 5723 5723 5723 5722 5721 5720 5719 5717 5715 5712 5709 5706 5705 5704 5702 5701 5701 5700 5699 5698 5697 5696
5683 5673 5682 5691 5690 5688 5687 5682 5674 5662 5662 5655 5654 5671 5700 5703 5706 5708 5712 5715 5716 5717 5718 5719 5719 5719 5718 5715 5713 5711 5708 5705 5702 5700 5699 5698 5697 5696 5695 5694 5693 5693 5692 5691
5676 5666 5663 5676 5691 5696 5691 5684 5672 5664 5659 5657 5656 5671 5706 5705 5705 5706 5708 5711 5713 5713 5714 5714 5715 5714 5712 5709 5707 5705 5702 5699 5698 5697 5695 5692 5690 5689 5688 5688 5688 5688 5687 5687
5672 5659 5652 5659 5671 5681 5682 5681 5676 5668 5657 5651 5653 5671 5700 5699 5700 5702 5703 5705 5707 5708 5708 5708 5708 5708 5706 5704 5701 5699 5697 5695 5694 5692 5690 5687 5684 5683 5682 5682 5682 5682 5681 5681
5671 5654 5652 5651 5659 5669 5671 5674 5673 5665 5653 5651 5659 5673 5687 5689 5691 5694 5697 5700 5701 5702 5703 5702 5701 5701 5701 5699 5697 5696 5693 5691 5689 5687 5684 5682 5679 5678 5678 5677 5677 5676 5676 5676
5659 5648 5653 5659 5666 5669 5669 5670 5670 5667 5664 5661 5667 5672 5681 5685 5688 5690 5692 5695 5696 5696 5697 5697 5695 5694 5693 5693 5691 5690 5688 5686 5684 5682 5680 5678 5675 5674 5673 5673 5672 5672 5671 5671
5644 5642 5648 5652 5660 5663 5663 5667 5668 5667 5668 5667 5669 5670 5681 5682 5684 5685 5687 5689 5690 5691 5692 5692 5691 5690 5689 5688 5686 5685 5683 5682 5680 5677 5675 5673 5671 5669 5668 5667 5667 5666 5665 5665
5632 5633 5633 5635 5648 5652 5647 5659 5662 5663 5665 5666 5663 5670 5674 5675 5678 5679 5681 5683 5684 5686 5686 5686 5685 5685 5684 5683 5682 5681 5679 5677 5675 5672 5670 5668 5665 5663 5662 5661 5660 5660 5659 5658
5625 5623 5620 5625 5634 5627 5645 5660 5663 5660 5660 5661 5663 5666 5669 5671 5673 5675 5677 5678 5678 5679 5680 5680 5679 5679 5679 5678 5676 5674 5673 5671 5668 5666 5664 5662 5659 5657 5656 5655 5655 5654 5654 5653
5623 5619 5614 5612 5617 5626 5641 5651 5651 5650 5649 5655 5655 5659 5661 5665 5666 5666 5670 5672 5673 5673 5674 5674 5674 5673 5672 5671 5669 5667 5665 5664 5662 5661 5659 5657 5654 5652 5651 5650 5650 5649 5648 5647
5615 5615 5610 5607 5612 5614 5631 5645 5650 5647 5640 5649 5650 5650 5652 5655 5651 5655 5663 5664 5664 5665 5667 5667 5666 5665 5664 5663 5662 5660 5658 5656 5655 5655 5654 5652 5650 5648 5647 5646 5644 5643 5642 5641
5604 5602 5602 5602 5603 5612 5628 5638 5643 5630 5632 5641 5643 5644 5645 5645 5646 5650 5654 5656 5657 5658 5658 5659 5658 5657 5656 5655 5654 5652 5651 5650 5651 5649 5647 5646 5645 5644 5643 5641 5639 5638 5637 5636
5595 5593 5593 5593 5596 5604 5623 5626 5625 5625 5631 5634 5636 5637 5638 5639 5641 5644 5647 5648 5648 5648 5648 5649 5648 5647 5647 5647 5647 5645 5644 5645 5645 5643 5641 5640 5639 5639 5638 5635 5633 5632 5631 5630
5587 5590 5590 5593 5597 5606 5612 5616 5620 5621 5623 5626 5628 5631 5633 5633 5634 5636 5638 5638 5639 5639 5640 5640 5640 5639 5639 5639 5639 5638 5638 5638 5638 5636 5635 5634 5633 5632 5631 5630 5628 5626 5625 5624
5584 5586 5586 5589 5596 5601 5605 5609 5613 5616 5617 5620 5623 5625 5626 5627 5628 5629 5629 5630 5630 5631 5631 5632 5631 5631 5631 5631 5631 5631 5631 5632 5631 5630 5628 5628 5627 5626 5625 5624 5623 5621 5620 5619
5574 5578 5579 5582 5588 5594 5599 5602 5605 5609 5612 5614 5617 5619 5620 5621 5621 5622 5621 5622 5622 5622 5623 5623 5622 5622 5623 5623 5623 5624 5625 5625 5624 5623 5622 5622 5621 5620 5619 5618 5617 5616 5616 5616
5566 5569 5572 5576 5582 5582 5588 5595 5600 5602 5604 5607 5609 5611 5614 5614 5614 5615 5614 5614 5614 5614 5615 5614 5615 5615 5616 5616 5617 5618 5618 5618 5618 5617 5616 5616 5615 5615 5613 5612 5611 5611 5611 5611